Tracking 18665 objects as of 23-June-2017
HD Live streaming from Space Station
objects crossing your sky now

SL-16 DEB

Track SL-16 DEB now!
10-day predictions


NORAD ID: 22453
Int'l Code: 1992-093ES
Perigee: 825.7 km
Apogee: 1,079.3 km
Inclination: 70.8 °
Period: 104.0 minutes
Semi major axis: 7323 km
RCS: 0.0192 m2 (small)
Launch date: December 25, 1992
Source: Commonwealth of Independent States (former USSR) (CIS)
Launch site: TYURATAM MISSILE AND SPACE COMPLEX (TTMTR)

Note: This is SATELLITE DEBRIS
Your satellite tracking list
Your tracking list is empty





NASA's NSSDC Master Catalog

Two Line Element Set (TLE):
1 22453U 92093ES  17173.79082110 -.00000082 +00000-0 -28913-4 0  9995
2 22453 070.8052 294.9181 0173110 060.6396 094.9923 13.85240286232582
Source of the keplerian elements: AFSPC